Regional Weather Roundup
Issued by NWS

Home | Current Version | Previous Version | Graphics & Text | Print | Product List | Glossary On
Versions: 1 2 3 4 5 6 7 8 9 10 11 12 13 14 15 16 17 18 19 20 21 22 23 24 25 26 27 28 29 30 31 32 33 34 35 36 37 38 39 40 41 42 43 44 45 46 47 48 49 50
000
ASUS45 KPSR 032200
RWRAZ

PRELIMINARY ARIZONA REGIONAL HOURLY WEATHER ROUNDUP
NATIONAL WEATHER SERVICE PHOENIX AZ
300 PM MST TUE MAR 03 2015

NOTE: FAIR INDICATES FEW OR NO CLOUDS BELOW 12,000 FEET WITH NO
SIGNIFICANT WEATHER AND/OR OBSTRUCTIONS TO VISIBILITY.

AZZ001>003-036-032300-
NORTHWEST ARIZONA

CITY           SKY/WX    TMP DP  RH WIND       PRES   REMARKS
KINGMAN        SUNNY     50  32  50 SW5       29.87F
$$

AZZ004>008-015-016-018-032300-
NORTH CENTRAL ARIZONA

CITY           SKY/WX    TMP DP  RH WIND       PRES   REMARKS
GRAND CANYON   PTSUNNY   32  26  78 SW12      29.85F WCI  23
PRESCOTT       MOSUNNY   47  26  44 W12       29.86F
FLAGSTAFF      NOT AVBL
PAYSON         LGT RAIN  39  36  87 VRB3      29.89S
PAGE           MOSUNNY   48  27  44 W7        29.80F
$$

AZZ009>014-017-032300-
NORTHEAST ARIZONA

CITY           SKY/WX    TMP DP  RH WIND       PRES   REMARKS
WINSLOW        NOT AVBL
SAINT JOHNS    MOSUNNY   48  22  35 SW16      29.82F
WINDOW ROCK    CLOUDY    42  24  49 SW21G26   29.82F
SHOW LOW       MOSUNNY   41  23  48 SW17G31   29.87F
$$

AZZ023-032300-
GREATER PHOENIX AREA

CITY           SKY/WX    TMP DP  RH WIND       PRES   REMARKS
PHOENIX        PTSUNNY   62  44  51 S9        29.84F
GLENDALE       PTSUNNY   63  37  39 SW6       29.86F
DEER VALLEY    PTSUNNY   62  36  37 W6        29.84F
SCOTTSDALE     MOSUNNY   62  38  40 S6        29.85F
MESA-GATEWAY   MOSUNNY   61  39  44 CALM      29.87F
CHANDLER       PTSUNNY   63  39  42 SE8       29.86F
$$

AZZ027-028-032300-
SOUTHWEST MARICOPA COUNTY AND PINAL COUNTY

CITY           SKY/WX    TMP DP  RH WIND       PRES   REMARKS
CASA GRANDE    CLOUDY    61  37  41 SE3       29.86F
GILA BEND      MOSUNNY   63  42  46 SE6       29.85F
$$

AZZ503-504-507>509-032300-
SOUTHEAST ARIZONA

CITY           SKY/WX    TMP DP  RH WIND       PRES   REMARKS
TUCSON         PTSUNNY   63  34  33 VRB5      29.86F
RYAN FIELD       N/A     61  37  41 W8        29.86F
NOGALES        SUNNY     61  27  27 SW10G22   29.85F
SIERRA VISTA   MOSUNNY   61  23  23 SW8G17    29.84F
SAFFORD        SUNNY     61  33  35 N6        29.82F
$$

AZZ020-021-025-026-031-032300-
SOUTHWEST ARIZONA

CITY           SKY/WX    TMP DP  RH WIND       PRES   REMARKS
YUMA           NOT AVBL
$$

CAZ031-033-041-043-047-048-061-032300-
SOUTHERN CALIFORNIA

CITY           SKY/WX    TMP DP  RH WIND       PRES   REMARKS
DOWNTOWN L.A.  SUNNY     64  42  44 VRB3      29.90F
L.A. AIRPORT   MOSUNNY   60  47  61 W17       29.91F
SAN DIEGO      MOSUNNY   64  45  49 NW13      29.92F
BURBANK        SUNNY     64  37  36 VRB7      29.88F
ONTARIO        MOSUNNY   62  35  36 CALM      29.88F
RIVERSIDE      MOSUNNY   65  31  28 VRB3      29.88F
PALM SPRINGS   MOSUNNY   67  35  30 VRB5      29.88F
EL CENTRO NAS  MOSUNNY   65  34  31 CALM      29.87F
IMPERIAL       SUNNY     65  38  36 VRB6      29.87F
BLYTHE         SUNNY     63  42  46 N5        29.88F
$$

NVZ020-UTZ003-032300-
SOUTHERN NEVADA-UTAH

CITY           SKY/WX    TMP DP  RH WIND       PRES   REMARKS
LAS VEGAS      NOT AVBL
SALT LAKE CITY PTSUNNY   36  25  64 N12       29.90R WCI  28
$$

NMZ009-TXZ055-032300-
NEW MEXICO-WEST TEXAS

CITY           SKY/WX    TMP DP  RH WIND       PRES   REMARKS
ALBUQUERQUE    MOSUNNY   52  29  41 CALM      29.77F
EL PASO        PTSUNNY   60  45  57 W7        29.84F
$$


........................KEY........................
SKY/WX - SKY CONDITION/WEATHER
TMP    - TEMPERATURE IN FAHRENHEIT
DP     - DEW POINT IN FAHRENHEIT
RH     - RELATIVE HUMIDITY IN PERCENT
WIND   - DIRECTION AND SPEED IN MILES PER HOUR (MPH)
VRB    - VARIABLE WIND DIRECTION
PRES   - MEAN SEA LEVEL PRESSURE IN INCHES OF MERCURY
         F - FALLING PRESSURE   R - RISING PRESSURE
         S - STEADY PRESSURE
VSB    - VISIBILITY IN MILES
HX     - HEAT INDEX IN FAHRENHEIT
WCI    - WIND CHILL INDEX IN FAHRENHEIT
TC     - TEMPERATURE IN CELSIUS WHICH IS ALSO KNOWN AS
         TEMPERATURE IN CENTIGRADE
AFB    - AIR FORCE BASE
         LUKE AFB IS LUKE AIR FORCE BASE
         DAVIS-MONTHAN IS DAVIS-MONTHAN AIR FORCE BASE
NAS    - NAVAL AIR STATION
         EL CENTRO NAS IS EL CENTRO NAVAL AIR STATION
N/A    - NOT AVAILABLE



USA.gov is the U.S. government's official web portal to all federal, state and local government web resources and services.